Weather History for Klamath Falls, OR

Change the Weather History Date:

Sunday, January 12, 2014

  Actual Average Record
Temperature  
Mean Temperature 31 °F 30 °F  
Max Temperature 36 °F 39 °F 99 °F (2013)
Min Temperature 25 °F 21 °F -5 °F (2013)
Degree Days  
Heating Degree Days 34 35  
Month to date heating degree days 378 426  
Since 1 July heating degree days 3416 3327  
Cooling Degree Days 0 0  
Month to date cooling degree days 0 0  
Year to date cooling degree days 0 0  
Moisture  
Dew Point 28 °F    
Average Humidity 90    
Maximum Humidity 92    
Minimum Humidity 82    
Precipitation  
Precipitation 0.03 in 0.07 in 0.95 in (1980)
Month to date precipitation 0.10 1.01  
Year to date precipitation 0.10 1.01  
Sea Level Pressure  
Sea Level Pressure 30.41 in    
Wind  
Wind Speed 7 mph (SW)    
Max Wind Speed 25 mph    
Max Gust Speed 30 mph    
Visibility 9 miles    
Events      
T = Trace of Precipitation, MM = Missing Value Source: NWS Daily Summary

Daily Weather History Graph

Daily Weather History Graph

Search for Another Location

Airport:

Trip Planner

Search our weather history database for the weather conditions in past years. The results will help you decide how hot, cold, wet, or windy it might be!

Date:

Astronomy

Jan. 12, 2014 Rise Set
Actual Time 7:34 AM PST 4:56 PM PST
Civil Twilight 7:02 AM PST 5:28 PM PST
Nautical Twilight 6:28 AM PST 6:02 PM PST
Astronomical Twilight 5:54 AM PST 6:36 PM PST
Moon 2:29 PM PST (1/12) 4:36 AM PST (1/12)
Length of Visible Light 10h 25m
Length of Day
9h 22m
Waxing Gibbous, 90% of the Moon is Illuminated
Jan 12
Waxing Gibbous
Jan 15
Full
Jan 23
Last Quarter
Jan 30
New
Feb 6
First Quarter

Hourly Weather History & Observations

Time (PST) Temp. Windchill Dew Point Humidity Pressure Visibility Wind Dir Wind Speed Gust Speed Precip Events Conditions
12:53 AM 30.9 °F 18.4 °F 27.0 °F 85% 30.16 in 10.0 mi West 20.7 mph - N/A   Scattered Clouds
1:53 AM 30.9 °F 20.7 °F 27.0 °F 85% 30.17 in 10.0 mi WSW 13.8 mph - N/A   Scattered Clouds
2:53 AM 30.9 °F 23.5 °F 28.0 °F 89% 30.21 in 9.0 mi SSW 8.1 mph - 0.00 in   Overcast
3:53 AM 30.0 °F 19.1 °F 27.0 °F 88% 30.23 in 10.0 mi WSW 15.0 mph - N/A   Clear
4:53 AM 30.9 °F 20.2 °F 26.1 °F 82% 30.25 in 10.0 mi West 15.0 mph - N/A   Clear
5:53 AM 30.9 °F 20.2 °F 28.0 °F 89% 30.25 in 10.0 mi West 15.0 mph - N/A   Scattered Clouds
6:53 AM 28.9 °F 19.8 °F 26.1 °F 89% 30.29 in 10.0 mi WNW 10.4 mph - N/A   Partly Cloudy
7:53 AM 28.0 °F 20.8 °F 26.1 °F 92% 30.32 in 10.0 mi West 6.9 mph - N/A   Partly Cloudy
8:12 AM 28.4 °F 22.2 °F 26.6 °F 93% 30.28 in 6.0 mi Variable 5.8 mph - N/A   Partly Cloudy
8:49 AM 30.2 °F 22.6 °F 28.4 °F 93% 30.30 in 10.0 mi South 8.1 mph - N/A   Overcast
8:53 AM 32.0 °F 27.5 °F 28.0 °F 85% 30.36 in 10.0 mi South 4.6 mph - N/A   Overcast
9:23 AM 32.0 °F 28.7 °F 28.4 °F 87% 30.33 in 10.0 mi South 3.5 mph - 0.01 in   Overcast
9:30 AM 32.0 °F 28.7 °F 28.4 °F 87% 30.34 in 10.0 mi Variable 3.5 mph - 0.01 in   Overcast
9:53 AM 32.0 °F 24.8 °F 28.9 °F 88% 30.40 in 10.0 mi SW 8.1 mph - 0.02 in   Overcast
10:53 AM 33.1 °F 26.1 °F 30.0 °F 89% 30.41 in 10.0 mi SSW 8.1 mph - 0.01 in   Overcast
11:53 AM 33.1 °F 26.1 °F 30.0 °F 89% 30.41 in 10.0 mi SSW 8.1 mph - N/A   Overcast
12:53 PM 34.0 °F 26.6 °F 30.0 °F 85% 30.40 in 10.0 mi SSW 9.2 mph - N/A   Overcast
1:34 PM 33.8 °F 28.6 °F 30.2 °F 87% 30.36 in 10.0 mi SSW 5.8 mph - N/A   Overcast
1:53 PM 35.1 °F 29.3 °F 30.0 °F 82% 30.40 in 10.0 mi SSW 6.9 mph - N/A   Overcast
2:53 PM 35.1 °F 29.3 °F 30.9 °F 85% 30.43 in 10.0 mi WSW 6.9 mph - N/A   Mostly Cloudy
3:53 PM 35.1 °F 29.3 °F 30.9 °F 85% 30.45 in 10.0 mi West 6.9 mph - N/A   Mostly Cloudy
4:53 PM 34.0 °F 28.0 °F 30.9 °F 89% 30.48 in 10.0 mi WSW 6.9 mph - N/A   Overcast
5:53 PM 34.0 °F 31.0 °F 30.0 °F 85% 30.48 in 10.0 mi SW 3.5 mph - N/A   Overcast
6:53 PM 32.0 °F - 30.0 °F 92% 30.51 in 10.0 mi Calm Calm - N/A   Overcast
7:53 PM 32.0 °F - 30.0 °F 92% 30.53 in 10.0 mi Calm Calm - N/A   Overcast
8:43 PM 32.0 °F - 30.2 °F 93% 30.47 in 10.0 mi Calm Calm - N/A   Overcast
8:53 PM 32.0 °F - 30.0 °F 92% 30.53 in 10.0 mi Calm Calm - N/A   Overcast
9:15 PM 33.8 °F - 30.2 °F 87% 30.48 in 10.0 mi Calm Calm - N/A   Overcast
9:53 PM 30.9 °F - 28.9 °F 92% 30.56 in 10.0 mi Calm Calm - N/A   Overcast
10:01 PM 30.2 °F 26.7 °F 28.4 °F 93% 30.50 in 10.0 mi ESE 3.5 mph - N/A   Overcast
10:42 PM 28.4 °F - 26.6 °F 93% 30.51 in 10.0 mi Calm Calm - N/A   Scattered Clouds
10:53 PM 28.0 °F - 27.0 °F 96% 30.58 in 10.0 mi Calm Calm - N/A   Clear
11:20 PM 26.6 °F - 26.6 °F 100% 30.51 in 2.5 mi Calm Calm - N/A   Partly Cloudy
11:28 PM 26.6 °F - 26.6 °F 100% 30.51 in 1.0 mi Calm Calm - N/A   Mist
11:30 PM 26.6 °F - 26.6 °F 100% 30.51 in 0.8 mi Calm Calm - N/A   Scattered Clouds
11:40 PM 26.6 °F - 26.6 °F 100% 30.51 in 1.0 mi Calm Calm - N/A   Mostly Cloudy
11:43 PM 26.6 °F - 26.6 °F 100% 30.51 in 4.0 mi Calm Calm - N/A   Mostly Cloudy
11:53 PM 27.0 °F - 26.1 °F 96% 30.59 in 10.0 mi Calm Calm - N/A   Overcast